ASA1122 KLAX-KDEN

Flight info

Callsign ASA1122
Flight time N/A
Altitude 35000
Route ORCKA5 LAS J146 DICEE BUMMP SSKII3
Aircraft B738/M-SDE2E3FGHIRWXY/LB1

Departure

Time 2026-05-06 20:38
Airport Los Angeles International Airport (KLAX)

Arrival

Time N/A
Airport Denver International Airport (KDEN)
Time Latitude Longitude Altitude Speed Heading
2026-05-06 19:45 33.94716 -118.40714 125 ft 0 kts 217°
2026-05-06 20:27 33.94716 -118.40713 124 ft 1 kts 217°
2026-05-06 20:27 33.94713 -118.40717 125 ft 0 kts 218°
2026-05-06 20:28 33.94711 -118.40719 122 ft 0 kts 202°
2026-05-06 20:30 33.94718 -118.40715 119 ft 0 kts 205°
2026-05-06 20:31 33.94716 -118.40717 125 ft 0 kts 211°
2026-05-06 20:31 33.94718 -118.40716 119 ft 1 kts 213°
2026-05-06 20:31 33.94734 -118.40704 123 ft 4 kts 193°
2026-05-06 20:31 33.94761 -118.40717 123 ft 5 kts 120°
2026-05-06 20:32 33.94767 -118.40737 122 ft 1 kts 83°
2026-05-06 20:32 33.94767 -118.40736 122 ft 0 kts 83°
2026-05-06 20:33 33.94773 -118.40665 125 ft 15 kts 85°
2026-05-06 20:33 33.94791 -118.40509 122 ft 20 kts 80°
2026-05-06 20:33 33.94815 -118.40358 125 ft 9 kts 81°
2026-05-06 20:34 33.94824 -118.40323 123 ft 1 kts 59°
2026-05-06 20:34 33.94845 -118.40295 124 ft 10 kts 33°
2026-05-06 20:34 33.94901 -118.40237 123 ft 15 kts 70°
2026-05-06 20:34 33.94907 -118.40200 122 ft 0 kts 82°
2026-05-06 20:35 33.94908 -118.40199 122 ft 0 kts 82°
2026-05-06 20:36 33.94909 -118.40172 124 ft 12 kts 85°
2026-05-06 20:36 33.94918 -118.40094 123 ft 3 kts 70°
2026-05-06 20:36 33.94921 -118.40088 122 ft 0 kts 58°
2026-05-06 20:37 33.94923 -118.40086 123 ft 4 kts 56°
2026-05-06 20:37 33.94926 -118.40081 124 ft 4 kts 47°
2026-05-06 20:37 33.95013 -118.40083 119 ft 15 kts 310°
2026-05-06 20:37 33.95013 -118.40219 124 ft 37 kts 262°
2026-05-06 20:38 33.94945 -118.40879 123 ft 119 kts 262°
2026-05-06 20:38 33.94821 -118.42139 277 ft 171 kts 263°
2026-05-06 20:38 33.94706 -118.43577 1286 ft 177 kts 263°
2026-05-06 20:38 33.94667 -118.45091 2328 ft 180 kts 272°
2026-05-06 20:39 33.94745 -118.46644 3041 ft 197 kts 275°
2026-05-06 20:39 33.94829 -118.48385 3306 ft 220 kts 276°
2026-05-06 20:39 33.94965 -118.50297 3281 ft 235 kts 277°
2026-05-06 20:39 33.95164 -118.52286 2968 ft 237 kts 282°
2026-05-06 20:40 33.95646 -118.53986 3538 ft 201 kts 299°
2026-05-06 20:40 33.96321 -118.55548 3597 ft 227 kts 301°
2026-05-06 20:40 33.97320 -118.56923 4177 ft 219 kts 334°
2026-05-06 20:40 33.98844 -118.57449 4408 ft 237 kts 355°
2026-05-06 20:41 34.00529 -118.57420 4104 ft 249 kts